This is the latest recevied weather packets stored in our database for station/object WA6OOO. If no packets are shown the sender has not sent any weather packets the latest 10 day(s).
| Time | Temp. | Humidity | Pressure | Rain* | Wind** | Luminosity | Snow |
|---|---|---|---|---|---|---|---|
| 1788048274 | 25.56° C | 70% | 1013.6 hPa | 0 mm | - | 244 W/m² | - |
| 1788047972 | 26.11° C | 69% | 1013.6 hPa | 0 mm | - | 259 W/m² | - |
| 1788047672 | 26.11° C | 69% | 1013.7 hPa | 0 mm | - | 273 W/m² | - |
| 1788047371 | 27.22° C | 67% | 1013.6 hPa | 0 mm | - | 286 W/m² | - |
| 1788047067 | 26.67° C | 66% | 1013.6 hPa | 0 mm | - | 301 W/m² | - |
| 1788046771 | 26.67° C | 66% | 1013.7 hPa | 0 mm | - | 315 W/m² | - |
| 1788046461 | 27.22° C | 65% | 1013.6 hPa | 0 mm | - | 333 W/m² | - |
| 1788046160 | 26.67° C | 66% | 1013.6 hPa | 0 mm | - | 350 W/m² | - |
| 1788045854 | 26.67° C | 67% | 1013.6 hPa | 0 mm | - | 366 W/m² | - |
| 1788045550 | 26.67° C | 67% | 1013.8 hPa | 0 mm | - | 382 W/m² | - |
| 1788045245 | 27.22° C | 66% | 1014 hPa | 0 mm | - | 401 W/m² | - |
| 1788044941 | 26.67° C | 67% | 1014 hPa | 0 mm | - | 398 W/m² | - |
| 1788044639 | 26.67° C | 68% | 1014 hPa | 0 mm | - | 476 W/m² | - |
| 1788044338 | 26.67° C | 68% | 1014.1 hPa | 0 mm | - | 487 W/m² | - |
| 1788044035 | 26.67° C | 68% | 1014 hPa | 0 mm | - | 486 W/m² | - |
| 1788043730 | 26.67° C | 68% | 1014.2 hPa | 0 mm | - | 470 W/m² | - |
| 1788043425 | 26.67° C | 68% | 1014.2 hPa | 0 mm | - | 454 W/m² | - |
| 1788043124 | 26.11° C | 70% | 1014.2 hPa | 0 mm | - | 566 W/m² | - |
| 1788042820 | 27.22° C | 66% | 1014.3 hPa | 0 mm | - | 575 W/m² | - |
| 1788042519 | 27.78° C | 66% | 1014.5 hPa | 0 mm | - | 558 W/m² | - |
| 1788042214 | 27.78° C | 67% | 1014.2 hPa | 0 mm | - | 575 W/m² | - |
| 1788041910 | 27.22° C | 67% | 1014.3 hPa | 0 mm | - | 651 W/m² | - |
| 1788041605 | 27.78° C | 64% | 1014.3 hPa | 0 mm | - | 169 W/m² | - |
| 1788041299 | 28.33° C | 61% | 1014.2 hPa | 0 mm | - | 585 W/m² | - |
| 1788040998 | 27.78° C | 62% | 1014.6 hPa | 0 mm | - | 667 W/m² | - |
* Rain latest hour (hover to see other rain measurements)
** Current wind speed in m/s (hover to see current wind gust speed)